1504569600.81,23162,15.63,73702.0,-3.91,-16.27,-18.01,0,*55
1504569602.05,23163,15.69,73704.8,-3.91,-16.59,-17.79,0,*5D
1504569603.31,23164,15.69,73704.3,-3.93,-16.65,-18.21,0,*55
1504569604.57,23165,15.63,73700.0,-3.91,-16.27,-18.01,0,*52
1504569605.8,23166,15.69,73698.8,-3.91,-16.55,-18.93,0,*5F
1504569607.09,23167,15.69,73698.3,-3.89,-16.31,-17.79,0,*5E
1504569608.35,23168,15.69,73702.3,-3.91,-16.13,-18.01,0,*58
1504569609.62,23169,15.69,73700.3,-3.89,-16.41,-18.55,0,*56
1504569610.85,23170,15.69,73698.5,-3.89,-16.83,-19.07,0,*56
1504569612.08,23171,15.63,73690.5,-3.89,-16.97,-18.69,0,*5B
1504569613.34,23172,15.69,73694.0,-3.89,-16.31,-18.65,0,*58
1504569614.6,23173,15.69,73700.0,-3.89,-16.75,-18.55,0,*5A
1504569615.84,23174,15.69,73692.0,-3.89,-16.83,-18.41,0,*51
1504569617.06,23175,15.69,73676.0,-3.87,-16.93,-18.59,0,*56
1504569618.32,23176,15.69,73686.3,-3.89,-16.97,-18.01,0,*52
1504569619.58,23177,15.69,73690.8,-3.89,-16.75,-18.55,0,*5E
1504569620.87,23178,15.69,73694.0,-3.89,-16.23,-17.79,0,*53
1504569622.14,23179,15.63,73688.8,-3.89,-16.23,-17.87,0,*53
1504569623.4,23180,15.63,73688.8,-3.89,-16.23,-17.87,0,*55
1504569624.64,23181,15.69,73680.8,-3.89,-16.55,-18.25,0,*52
1504569625.93,23182,15.63,73676.8,-3.89,-16.27,-18.01,0,*52
1504569627.16,23183,15.69,73692.8,-3.87,-16.23,-17.87,0,*58
1504569628.4,23184,15.69,73690.0,-3.89,-16.55,-18.21,0,*53
1504569629.69,23185,15.69,73688.0,-3.89,-16.27,-18.01,0,*55
1504569630.93,23186,15.63,73692.3,-3.87,-16.59,-18.35,0,*56
1504569632.21,23187,15.63,73690.8,-3.89,-16.23,-17.79,0,*53
1504569633.45,23188,15.63,73692.0,-3.89,-16.59,-18.21,0,*53
1504569634.74,23189,15.69,73702.3,-3.89,-16.69,-18.55,0,*52
1504569636.0,23190,15.69,73702.8,-3.89,-16.75,-17.93,0,*52
1504569637.26,23191,15.63,73704.8,-3.89,-17.17,-18.25,0,*54
1504569638.52,23192,15.69,73708.8,-3.89,-16.97,-17.93,0,*5C
1504569639.79,23193,15.69,73700.8,-3.89,-16.59,-17.79,0,*5B
1504569641.07,23194,15.63,73696.8,-3.89,-17.11,-17.59,0,*53
1504569642.33,23195,15.63,73700.8,-3.87,-16.27,-17.25,0,*53
1504569643.56,23196,15.63,73700.3,-3.89,-15.99,-17.49,0,*52
1504569644.8,23197,15.63,73702.5,-3.89,-15.67,-17.87,0,*50
1504569646.03,23198,15.69,73700.0,-3.91,-15.99,-17.11,0,*58
1504569647.28,23199,15.69,73698.5,-3.91,-14.97,-15.21,0,*57
1504569648.49,23200,15.69,73702.3,-3.87,-12.43,-13.19,0,*51
1504569649.73,23201,15.63,73702.0,-3.89,-12.21,-13.69,0,*5D
1504569651.02,23202,15.69,73702.3,-3.89,-12.79,-14.79,0,*55
1504569652.25,23203,15.69,73700.0,-3.89,-13.55,-14.19,0,*5D
1504569653.49,23204,15.69,73702.3,-3.89,-13.69,-14.19,0,*55
1504569654.72,23205,15.69,73690.0,-3.89,-15.07,-14.33,0,*52
1504569655.99,23206,15.69,73680.3,-3.89,-16.13,-12.89,0,*50
1504569657.2,23207,15.63,73694.8,-3.87,-15.25,-11.11,0,*5B
1504569658.44,23208,15.63,73692.8,-3.87,-14.01,-10.23,0,*53
1504569659.7,23209,15.63,73696.5,-3.87,-11.63,-9.83,0,*61
1504569660.92,23210,15.63,73698.3,-3.87,-9.45,-8.93,0,*54
1504569662.11,23211,15.69,73692.8,-3.87,-8.25,-8.75,0,*5A
1504569663.33,23212,15.63,73682.3,-3.87,-7.91,-8.75,0,*59
1504569664.55,23213,15.69,73684.8,-3.87,-7.53,-7.77,0,*5B
1504569665.75,23214,15.63,73694.5,-3.83,-7.11,-6.81,0,*56
1504569666.95,23215,15.63,73694.3,-3.83,-7.19,-6.01,0,*57
1504569668.15,23216,15.63,73696.5,-3.83,-6.59,-5.35,0,*55
1504569669.35,23217,15.63,73688.5,-3.83,-5.47,-4.99,0,*5F
1504569670.59,23218,15.69,73688.0,-3.81,-4.99,-4.77,0,*50
1504569671.83,23219,15.63,73684.5,-3.83,-4.77,-4.85,0,*5E
1504569673.07,23220,15.63,73688.8,-3.81,-4.77,-5.39,0,*50
1504569674.34,23221,15.69,73694.5,-3.81,-5.11,-6.27,0,*5C
1504569675.57,23222,15.63,73702.8,-3.79,-5.47,-7.35,0,*59
1504569676.76,23223,15.63,73702.8,-3.79,-6.69,-8.97,0,*50
1504569678.01,23224,15.63,73702.0,-3.77,-8.51,-10.89,0,*6A
1504569679.27,23225,15.63,73686.8,-3.77,-9.31,-12.71,0,*69
1504569680.49,23226,15.63,73674.0,-3.77,-10.05,-13.69,0,*5D
1504569681.74,23227,15.63,73672.8,-3.77,-10.41,-13.65,0,*50
1504569683.02,23228,15.63,73688.5,-3.77,-11.37,-14.55,0,*5B
1504569684.26,23229,15.63,73696.3,-3.77,-13.69,-15.25,0,*55
1504569685.52,23230,15.63,73696.5,-3.77,-13.37,-15.67,0,*50
1504569686.78,23231,15.63,73696.8,-3.77,-14.19,-16.13,0,*5A
1504569688.05,23232,15.63,73694.5,-3.77,-14.83,-16.59,0,*54
1504569689.33,23233,15.63,73692.5,-3.77,-15.39,-17.17,0,*5E
1504569690.61,23234,15.63,73700.3,-3.77,-15.81,-17.59,0,*50
1504569691.84,23235,15.63,73698.0,-3.77,-15.95,-17.73,0,*5C
1504569693.09,23236,15.69,73702.8,-3.77,-15.95,-17.79,0,*55
1504569694.36,23237,15.63,73700.0,-3.77,-15.67,-17.07,0,*50
1504569695.64,23238,15.63,73698.5,-3.77,-15.43,-16.69,0,*50
1504569696.88,23239,15.69,73702.0,-3.77,-14.93,-16.45,0,*53
1504569698.14,23240,15.69,73702.5,-3.77,-14.97,-16.59,0,*54
1504569699.4,23241,15.63,73704.3,-3.77,-15.11,-17.07,0,*50
1504569700.65,23242,15.69,73700.0,-3.77,-15.99,-17.07,0,*53
1504569701.92,23243,15.69,73702.0,-3.77,-15.85,-17.35,0,*5E
1504569703.21,23244,15.69,73704.0,-3.77,-16.09,-17.21,0,*5B
1504569704.49,23245,15.69,73702.8,-3.77,-16.13,-17.79,0,*5C
1504569705.74,23246,15.63,73698.3,-3.77,-16.27,-17.73,0,*52
1504569706.95,23247,15.69,73702.8,-3.79,-16.89,-17.49,0,*50
1504569708.21,23248,15.63,73702.0,-3.79,-16.69,-17.79,0,*52
1504569709.45,23249,15.63,73702.8,-3.79,-15.95,-17.07,0,*5A
1504569710.71,23250,15.63,73700.5,-3.79,-16.13,-16.69,0,*56
1504569711.92,23251,15.63,73696.8,-3.79,-15.25,-16.75,0,*5C
1504569713.15,23252,15.63,73696.3,-3.79,-15.39,-16.55,0,*50
1504569714.39,23253,15.69,73702.3,-3.79,-15.53,-17.03,0,*5F
1504569715.65,23254,15.69,73700.3,-3.79,-15.57,-17.03,0,*5C
1504569716.87,23255,15.63,73702.3,-3.79,-15.99,-17.93,0,*56
1504569718.1,23256,15.69,73702.5,-3.79,-15.67,-17.03,0,*5D
1504569719.3,23257,15.63,73700.5,-3.79,-15.67,-17.73,0,*5B
1504569720.54,23258,15.63,73692.0,-3.79,-15.29,-17.03,0,*59
1504569721.78,23259,15.63,73694.8,-3.79,-15.39,-16.75,0,*59
1504569723.01,23260,15.69,73702.0,-3.79,-15.85,-17.31,0,*55
1504569724.24,23261,15.63,73698.5,-3.79,-15.67,-17.03,0,*59
1504569725.46,23262,15.63,73698.8,-3.79,-14.93,-15.67,0,*50
1504569726.68,23263,15.63,73696.5,-3.79,-14.11,-15.29,0,*51
1504569727.94,23264,15.63,73702.3,-3.79,-14.43,-16.13,0,*5B
1504569729.18,23265,15.69,73700.0,-3.79,-15.11,-16.17,0,*58
1504569730.41,23266,15.63,73696.5,-3.79,-15.25,-16.69,0,*55
1504569731.62,23267,15.63,73702.5,-3.79,-15.15,-16.97,0,*56
1504569732.83,23268,15.63,73696.8,-3.79,-15.71,-17.35,0,*52
1504569734.03,23269,15.69,73696.3,-3.79,-15.67,-16.97,0,*5D
1504569735.3,23270,15.63,73698.5,-3.81,-16.17,-17.83,0,*52
1504569736.56,23271,15.63,73702.3,-3.79,-15.85,-17.59,0,*5B
1504569737.82,23272,15.63,73698.8,-3.79,-16.09,-17.59,0,*5F
1504569739.06,23273,15.63,73706.0,-3.79,-16.13,-17.73,0,*5D
1504569740.31,23274,15.63,73704.8,-3.79,-16.27,-17.93,0,*53
1504569741.55,23275,15.69,73706.3,-3.79,-16.31,-17.87,0,*50
1504569742.75,23276,15.63,73704.8,-3.79,-16.45,-18.25,0,*57
1504569743.98,23277,15.63,73706.5,-3.79,-16.31,-18.07,0,*55
1504569745.18,23278,15.63,73706.5,-3.79,-16.59,-18.41,0,*56
1504569746.44,23279,15.69,73708.5,-3.79,-16.69,-18.35,0,*57
1504569747.64,23280,15.69,73710.3,-3.79,-16.89,-18.79,0,*57
1504569748.88,23281,15.63,73706.8,-3.79,-16.83,-18.35,0,*54
1504569750.09,23282,15.63,73704.5,-3.79,-16.89,-18.07,0,*5C
1504569751.36,23283,15.63,73702.8,-3.81,-16.13,-17.35,0,*57
1504569752.59,23284,15.63,73706.0,-3.83,-16.31,-17.83,0,*5F
1504569753.83,23285,15.63,73710.3,-3.81,-16.59,-17.83,0,*52
1504569755.1,23286,15.63,73702.0,-3.81,-15.75,-15.85,0,*58
1504569756.36,23287,15.63,73704.0,-3.81,-13.87,-15.11,0,*5F
1504569757.59,23288,15.63,73702.3,-3.83,-13.47,-14.75,0,*5D
1504569758.86,23289,15.63,73706.3,-3.81,-14.15,-14.55,0,*5C
1504569760.13,23290,15.63,73706.8,-3.81,-14.11,-13.97,0,*59
1504569761.39,23291,15.63,73704.3,-3.81,-13.01,-14.15,0,*53
1504569762.62,23292,15.63,73708.0,-3.79,-13.79,-15.67,0,*5C
1504569763.85,23293,15.63,73710.3,-3.83,-15.11,-16.23,0,*53
1504569765.08,23294,15.63,73708.0,-3.81,-15.11,-15.63,0,*51
1504569766.31,23295,15.63,73710.3,-3.81,-15.63,-14.69,0,*5E
1504569767.56,23296,15.63,73704.5,-3.81,-15.43,-13.47,0,*54
1504569768.83,23297,15.63,73696.8,-3.81,-14.47,-12.39,0,*58
1504569770.12,23298,15.63,73688.3,-3.81,-13.01,-10.67,0,*5B
1504569771.36,23299,15.63,73692.0,-3.81,-10.93,-9.93,0,*61
1504569772.59,23300,15.63,73696.8,-3.81,-11.15,-9.75,0,*67
1504569773.79,23301,15.63,73698.5,-3.83,-10.35,-9.23,0,*64
1504569775.04,23302,15.69,73704.3,-3.81,-10.09,-9.15,0,*6F
1504569776.25,23303,15.63,73700.5,-3.79,-9.57,-8.93,0,*55
1504569777.45,23304,15.63,73702.0,-3.79,-9.19,-9.79,0,*5D
1504569778.66,23305,15.63,73702.8,-3.79,-8.93,-10.89,0,*68
1504569779.89,23306,15.63,73704.3,-3.79,-9.19,-11.85,0,*65
1504569781.14,23307,15.63,73706.8,-3.77,-10.31,-12.11,0,*56
1504569782.4,23308,15.63,73704.0,-3.77,-11.73,-12.25,0,*59
1504569783.66,23309,15.69,73690.0,-3.77,-10.89,-12.71,0,*5D
1504569784.94,23310,15.63,73690.8,-3.77,-12.07,-14.55,0,*51
1504569786.2,23311,15.63,73692.5,-3.77,-13.79,-16.55,0,*5A
1504569787.43,23312,15.63,73688.8,-3.79,-14.65,-16.17,0,*5B
1504569788.68,23313,15.63,73690.3,-3.77,-15.39,-16.89,0,*5B
1504569789.97,23314,15.63,73690.3,-3.77,-15.81,-17.03,0,*5C
1504569791.2,23315,15.63,73692.0,-3.77,-15.67,-16.59,0,*5B
1504569792.41,23316,15.63,73704.8,-3.75,-15.53,-16.93,0,*5B
1504569793.64,23317,15.69,73704.5,-3.75,-15.89,-17.73,0,*52
1504569794.85,23318,15.63,73694.8,-3.75,-15.67,-16.83,0,*53
1504569796.09,23319,15.63,73690.8,-3.75,-15.01,-16.51,0,*5D
1504569797.35,23320,15.63,73698.8,-3.77,-15.29,-17.21,0,*59
1504569798.57,23321,15.63,73686.3,-3.77,-15.07,-17.31,0,*55
1504569799.8,23322,15.63,73688.0,-3.77,-15.99,-17.73,0,*57
1504569801.03,23323,15.63,73692.0,-3.77,-15.71,-17.49,0,*59
1504569802.26,23324,15.63,73692.8,-3.75,-15.49,-17.17,0,*5C
1504569803.49,23325,15.63,73696.3,-3.75,-15.75,-17.25,0,*53
1504569804.75,23326,15.63,73692.5,-3.75,-16.27,-18.31,0,*5E
1504569806.03,23327,15.63,73694.8,-3.77,-16.27,-18.55,0,*5F
1504569807.26,23328,15.63,73696.0,-3.75,-16.51,-18.45,0,*52
1504569808.49,23329,15.63,73696.5,-3.75,-16.69,-17.69,0,*59
1504569809.75,23330,15.63,73698.5,-3.77,-15.15,-17.17,0,*52
1504569811.04,23331,15.63,73696.5,-3.77,-14.83,-17.03,0,*58
1504569812.29,23332,15.63,73692.5,-3.77,-15.95,-17.17,0,*58
1504569813.55,23333,15.63,73696.8,-3.77,-16.09,-18.07,0,*51
1504569814.83,23334,15.63,73694.0,-3.77,-16.17,-17.93,0,*5B
1504569816.1,23335,15.63,73694.8,-3.77,-16.17,-17.35,0,*56
1504569817.33,23336,15.63,73690.3,-3.75,-16.13,-17.31,0,*57
1504569818.57,23337,15.63,73690.8,-3.75,-16.17,-17.73,0,*54
1504569819.78,23338,15.63,73692.0,-3.75,-16.55,-17.83,0,*52
1504569821.08,23339,15.63,73702.8,-3.73,-16.13,-18.01,0,*52
1504569822.29,23340,15.63,73700.0,-3.75,-16.37,-17.87,0,*5D
1504569823.52,23341,15.69,73694.8,-3.75,-16.09,-17.73,0,*5A
1504569824.76,23342,15.63,73686.5,-3.73,-16.37,-18.45,0,*58
1504569826.0,23343,15.63,73694.8,-3.73,-15.49,-17.83,0,*56
1504569827.23,23344,15.63,73696.0,-3.75,-16.23,-17.73,0,*57
1504569828.5,23345,15.63,73698.5,-3.73,-15.75,-17.11,0,*54
1504569829.7,23346,15.63,73702.0,-3.75,-16.37,-17.31,0,*56
1504569830.97,23347,15.63,73694.5,-3.75,-16.09,-17.41,0,*5D
1504569832.22,23348,15.63,73696.5,-3.73,-15.81,-16.93,0,*59
1504569833.49,23349,15.63,73698.8,-3.75,-16.09,-16.27,0,*52
1504569834.75,23350,15.63,73702.0,-3.73,-15.67,-15.35,0,*57
1504569835.97,23351,15.63,73700.0,-3.75,-15.01,-13.23,0,*51
1504569837.26,23352,15.63,73700.8,-3.73,-13.37,-12.15,0,*53
1504569838.55,23353,15.63,73700.0,-3.73,-12.53,-12.53,0,*53
1504569839.79,23354,15.63,73696.8,-3.73,-12.21,-13.73,0,*52
1504569841.06,23355,15.63,73700.5,-3.73,-12.35,-15.07,0,*53
1504569842.3,23356,15.63,73702.0,-3.73,-13.51,-16.03,0,*54
1504569843.57,23357,15.63,73706.0,-3.73,-14.51,-16.79,0,*5F
1504569844.83,23358,15.63,73710.8,-3.73,-14.89,-16.65,0,*58
1504569846.09,23359,15.63,73704.3,-3.73,-15.39,-16.97,0,*5E
1504569847.35,23360,15.63,73706.0,-3.73,-15.11,-16.27,0,*55
1504569848.64,23361,15.63,73706.3,-3.73,-15.39,-15.81,0,*51
1504569849.93,23362,15.69,73704.0,-3.73,-16.27,-14.79,0,*58
1504569851.19,23363,15.63,73702.3,-3.73,-15.35,-12.89,0,*50
1504569852.44,23364,15.63,73702.0,-3.75,-13.51,-12.07,0,*53
1504569853.72,23365,15.63,73702.0,-3.73,-11.55,-11.81,0,*5F
1504569855.01,23366,15.63,73700.8,-3.73,-11.37,-12.53,0,*54
1504569856.29,23367,15.63,73696.3,-3.73,-11.81,-13.87,0,*50
1504569857.56,23368,15.63,73698.5,-3.73,-12.75,-14.89,0,*5E
1504569858.79,23369,15.63,73706.8,-3.73,-13.15,-14.37,0,*5D
1504569860.04,23370,15.63,73698.5,-3.75,-13.37,-13.01,0,*51
1504569861.28,23371,15.63,73698.8,-3.75,-13.37,-11.19,0,*5B
1504569862.55,23372,15.63,73694.5,-3.73,-11.23,-10.41,0,*55
1504569863.8,23373,15.63,73696.5,-3.73,-10.49,-9.53,0,*62
1504569865.01,23374,15.63,73700.0,-3.75,-9.71,-8.89,0,*56
1504569866.25,23375,15.63,73702.0,-3.73,-8.81,-8.25,0,*59
1504569867.5,23376,15.63,73702.8,-3.73,-8.59,-8.51,0,*5C
1504569868.75,23377,15.63,73706.5,-3.73,-8.51,-8.71,0,*57
1504569869.99,23378,15.63,73714.8,-3.73,-8.89,-9.01,0,*5B
1504569871.24,23379,15.63,73686.0,-3.73,-8.45,-9.15,0,*5F
1504569872.49,23380,15.63,73692.3,-3.71,-7.95,-9.79,0,*53
1504569873.74,23381,15.63,73698.0,-3.71,-7.95,-11.45,0,*64
1504569874.97,23382,15.69,73706.0,-3.71,-8.85,-14.61,0,*6A
1504569876.24,23383,15.63,73686.8,-3.69,-12.15,-16.09,0,*5C
1504569877.47,23384,15.63,73696.0,-3.69,-14.69,-16.65,0,*5C
1504569878.73,23385,15.69,73700.5,-3.71,-15.49,-17.07,0,*52
1504569880.01,23386,15.63,73698.0,-3.71,-15.85,-17.25,0,*51
1504569881.27,23387,15.63,73702.8,-3.71,-15.85,-17.35,0,*51
1504569882.53,23388,15.63,73702.3,-3.71,-15.89,-17.49,0,*59
1504569883.82,23389,15.63,73702.5,-3.71,-16.09,-17.11,0,*5E
1504569885.08,23390,15.63,73704.8,-3.71,-16.17,-18.11,0,*56
1504569886.34,23391,15.63,73704.3,-3.71,-15.89,-18.11,0,*53
1504569887.63,23392,15.63,73708.0,-3.71,-16.17,-18.01,0,*55
1504569888.87,23393,15.63,73706.3,-3.71,-16.37,-18.11,0,*57
1504569890.1,23394,15.63,73700.8,-3.71,-16.89,-18.45,0,*54
1504569891.37,23395,15.63,73702.0,-3.71,-16.51,-18.55,0,*51
1504569892.63,23396,15.63,73700.0,-3.69,-16.23,-18.01,0,*5F
1504569893.92,23397,15.63,73700.8,-3.71,-16.23,-18.31,0,*54
1504569895.18,23398,15.63,73704.5,-3.71,-16.23,-18.11,0,*59
1504569896.44,23399,15.63,73700.8,-3.71,-16.45,-18.01,0,*59
1504569897.7,23400,15.63,73704.3,-3.71,-16.17,-17.69,0,*58
1504569898.94,23401,15.63,73704.3,-3.71,-15.75,-17.35,0,*57
1504569900.2,23402,15.63,73702.5,-3.69,-15.89,-17.55,0,*58
1504569901.44,23403,15.63,73710.0,-3.71,-16.37,-17.83,0,*5D
1504569902.67,23404,15.63,73704.0,-3.69,-16.31,-18.17,0,*57
1504569903.93,23405,15.63,73706.0,-3.71,-15.75,-17.79,0,*5B
1504569905.21,23406,15.63,73688.3,-3.71,-16.23,-18.01,0,*58
1504569906.44,23407,15.63,73700.0,-3.71,-16.59,-18.11,0,*55
1504569907.71,23408,15.63,73698.5,-3.71,-15.75,-17.41,0,*5D
1504569908.99,23409,15.63,73694.8,-3.71,-15.89,-17.79,0,*54
1504569910.27,23410,15.63,73700.8,-3.71,-16.31,-17.41,0,*57
1504569911.52,23411,15.63,73700.8,-3.71,-15.63,-17.21,0,*54
1504569912.78,23412,15.63,73706.0,-3.71,-15.75,-17.25,0,*54
1504569914.04,23413,15.63,73706.0,-3.71,-15.75,-17.41,0,*57
1504569915.32,23414,15.63,73708.5,-3.71,-16.23,-17.79,0,*5B
1504569916.58,23415,15.63,73704.3,-3.71,-16.23,-18.17,0,*5D
1504569917.79,23416,15.63,73706.8,-3.69,-15.75,-18.11,0,*51
1504569919.05,23417,15.63,73708.5,-3.71,-15.89,-17.49,0,*58
1504569920.33,23418,15.69,73714.3,-3.71,-15.85,-17.63,0,*53
1504569921.57,23419,15.63,73708.0,-3.71,-15.75,-17.35,0,*5E
1504569922.86,23420,15.63,73710.8,-3.71,-16.23,-17.97,0,*5C
1504569924.15,23421,15.63,73710.3,-3.71,-16.09,-17.97,0,*55
1504569925.43,23422,15.63,73712.0,-3.71,-15.89,-17.63,0,*56
1504569926.71,23423,15.63,73716.0,-3.71,-15.85,-17.55,0,*5E
1504569927.95,23424,15.63,73714.3,-3.69,-16.17,-17.83,0,*53
1504569929.21,23425,15.63,73714.0,-3.71,-15.71,-17.97,0,*5D
1504569930.45,23426,15.63,73710.8,-3.71,-15.99,-17.35,0,*50
1504569931.73,23427,15.63,73710.8,-3.71,-16.17,-17.63,0,*57
1504569932.98,23428,15.63,73710.5,-3.71,-15.63,-17.25,0,*5A
1504569934.25,23429,15.63,73708.5,-3.71,-16.17,-17.83,0,*57
1504569935.51,23430,15.63,73708.8,-3.71,-16.17,-17.69,0,*5B
1504569936.77,23431,15.63,73706.3,-3.71,-16.23,-18.11,0,*5D
1504569938.02,23432,15.63,73708.8,-3.71,-16.23,-18.17,0,*58
1504569939.25,23433,15.63,73712.5,-3.69,-15.89,-17.49,0,*57
1504569940.47,23434,15.63,73710.3,-3.69,-15.71,-17.83,0,*51
1504569941.75,23435,15.63,73714.5,-3.71,-15.85,-17.63,0,*5C
1504569943.03,23436,15.63,73704.8,-3.71,-16.23,-17.79,0,*5B
1504569944.27,23437,15.63,73710.5,-3.69,-15.75,-17.11,0,*5D
1504569945.52,23438,15.63,73708.8,-3.69,-15.21,-17.79,0,*5D
1504569946.75,23439,15.63,73710.8,-3.69,-15.99,-17.25,0,*56
1504569948.0,23440,15.63,73708.3,-3.71,-15.99,-18.01,0,*58
1504569949.24,23441,15.63,73708.3,-3.69,-15.85,-17.35,0,*55
1504569950.46,23442,15.63,73714.0,-3.69,-16.03,-17.69,0,*52
1504569951.71,23443,15.63,73712.0,-3.71,-15.71,-17.41,0,*56
1504569952.92,23444,15.63,73712.0,-3.69,-15.99,-17.69,0,*54
1504569954.17,23445,15.63,73712.0,-3.71,-15.71,-17.79,0,*5B
1504569955.44,23446,15.63,73710.3,-3.69,-15.43,-17.07,0,*59
1504569956.72,23447,15.63,73708.0,-3.71,-15.57,-17.21,0,*50
1504569957.94,23448,15.63,73706.8,-3.69,-15.15,-16.79,0,*5C
1504569959.22,23449,15.63,73706.8,-3.71,-15.43,-17.11,0,*58
1504569960.48,23450,15.63,73706.8,-3.71,-15.63,-17.21,0,*51
1504569961.74,23451,15.63,73708.8,-3.69,-15.43,-17.11,0,*58
1504569962.98,23452,15.63,73706.3,-3.69,-15.75,-17.41,0,*5B
1504569964.27,23453,15.63,73710.3,-3.71,-16.09,-17.97,0,*50
1504569965.53,23454,15.63,73706.3,-3.71,-15.75,-17.55,0,*51
1504569966.8,23455,15.63,73706.8,-3.71,-16.31,-17.63,0,*56
1504569968.07,23456,15.63,73710.0,-3.69,-16.09,-18.01,0,*5C
1504569969.3,23457,15.63,73714.3,-3.69,-15.99,-17.79,0,*57
1504569970.59,23458,15.63,73702.3,-3.71,-16.09,-17.21,0,*56
1504569971.82,23459,15.63,73702.3,-3.69,-16.65,-18.25,0,*5F
1504569973.05,23460,15.63,73708.0,-3.71,-16.59,-18.45,0,*55
1504569974.31,23461,15.63,73702.5,-3.71,-15.85,-17.49,0,*55
1504569975.56,23462,15.63,73708.8,-3.71,-15.99,-17.41,0,*53
1504569976.84,23463,15.63,73708.3,-3.71,-15.89,-17.25,0,*51
1504569978.07,23464,15.63,73706.0,-3.71,-15.99,-17.83,0,*5B
1504569979.33,23465,15.63,73712.0,-3.71,-15.71,-17.41,0,*52
1504569980.59,23466,15.63,73712.8,-3.71,-16.09,-18.11,0,*57
1504569981.83,23467,15.63,73712.0,-3.73,-16.03,-17.73,0,*55
1504569983.09,23468,15.63,73714.8,-3.73,-16.03,-17.41,0,*5B
1504569984.34,23469,15.63,73708.8,-3.71,-15.99,-17.79,0,*53
1504569985.62,23470,15.63,73704.0,-3.71,-15.89,-17.55,0,*54
1504569986.89,23471,15.63,73704.5,-3.71,-15.63,-17.07,0,*56
1504569988.14,23472,15.63,73710.5,-3.71,-15.75,-17.25,0,*52
1504569989.41,23473,15.63,73708.5,-3.71,-16.17,-17.35,0,*55
1504569990.66,23474,15.63,73708.0,-3.71,-15.71,-17.25,0,*50
1504569991.94,23475,15.63,73712.5,-3.71,-15.89,-17.55,0,*51
1504569993.23,23476,15.69,73718.0,-3.71,-16.09,-17.41,0,*5C
1504569994.5,23477,15.63,73712.3,-3.71,-15.89,-17.35,0,*55
1504569995.77,23478,15.63,73716.3,-3.73,-16.13,-17.83,0,*55
1504569997.0,23479,15.63,73712.3,-3.73,-15.95,-18.21,0,*5E
1504569998.27,23480,15.63,73692.3,-3.69,-16.09,-17.79,0,*57
1504569999.51,23481,15.63,73690.0,-3.73,-16.41,-18.45,0,*51
1504570000.79,23482,15.63,73694.0,-3.71,-16.65,-18.55,0,*57
1504570002.06,23483,15.63,73694.8,-3.71,-15.89,-17.83,0,*53
1504570003.32,23484,15.63,73698.3,-3.71,-15.85,-17.35,0,*55
1504570004.57,23485,15.63,73698.0,-3.71,-15.99,-17.79,0,*51
1504570005.85,23486,15.63,73696.0,-3.73,-15.81,-17.25,0,*50
1504570007.12,23487,15.63,73696.5,-3.73,-15.95,-17.41,0,*56
1504570008.4,23488,15.63,73696.5,-3.73,-15.81,-17.25,0,*5E
1504570009.66,23489,15.63,73698.8,-3.73,-15.81,-17.31,0,*5A
1504570010.92,23490,15.63,73700.0,-3.73,-15.89,-17.31,0,*5A
1504570012.15,23491,15.63,73698.0,-3.75,-15.75,-17.17,0,*5A
1504570013.38,23492,15.63,73694.5,-3.75,-15.67,-17.11,0,*5C
1504570014.62,23493,15.63,73704.5,-3.73,-15.75,-17.31,0,*5A
1504570015.88,23494,15.63,73702.8,-3.73,-15.89,-17.31,0,*5E
1504570017.11,23495,15.63,73698.3,-3.75,-15.95,-17.41,0,*53
1504570018.39,23496,15.63,73704.0,-3.73,-15.81,-17.25,0,*51
1504570019.65,23497,15.63,73694.8,-3.73,-16.51,-18.49,0,*5B
1504570020.87,23498,15.63,73696.3,-3.75,-15.95,-17.87,0,*54
1504570022.13,23499,15.63,73692.3,-3.75,-16.09,-18.01,0,*52
1504570023.37,23500,15.63,73688.3,-3.75,-16.09,-17.83,0,*56
1504570024.61,23501,15.63,73690.3,-3.75,-15.75,-17.17,0,*52
1504570025.81,23502,15.63,73694.3,-3.75,-15.75,-17.31,0,*55
1504570027.05,23503,15.63,73692.8,-3.75,-15.67,-17.11,0,*55
1504570028.25,23504,15.63,73694.0,-3.75,-15.53,-16.97,0,*5A
1504570029.49,23505,15.63,73694.5,-3.75,-15.67,-17.17,0,*55
1504570030.77,23506,15.63,73688.0,-3.73,-15.89,-17.41,0,*53
1504570032.01,23507,15.63,73696.5,-3.75,-15.63,-17.11,0,*55
1504570033.26,23508,15.63,73692.3,-3.75,-15.81,-17.11,0,*56
1504570034.5,23509,15.63,73698.3,-3.75,-15.49,-17.03,0,*50
1504570035.73,23510,15.63,73694.3,-3.75,-15.49,-17.03,0,*58
1504570036.96,23511,15.63,73702.0,-3.75,-15.39,-16.97,0,*52
1504570038.23,23512,15.63,73700.8,-3.77,-15.53,-17.07,0,*57
1504570039.48,23513,15.63,73700.5,-3.77,-15.67,-17.17,0,*50
1504570040.73,23514,15.63,73696.0,-3.77,-15.67,-17.17,0,*57
1504570042.01,23515,15.63,73702.0,-3.77,-15.57,-17.03,0,*50
1504570043.29,23516,15.63,73694.8,-3.77,-15.57,-17.17,0,*56
1504570044.54,23517,15.63,73696.5,-3.79,-15.57,-17.17,0,*59
1504570045.82,23518,15.63,73698.3,-3.77,-15.81,-17.45,0,*54
1504570047.11,23519,15.63,73698.0,-3.77,-15.39,-17.03,0,*54
1504570048.34,23520,15.63,73702.5,-3.79,-15.71,-17.17,0,*59
1504570049.57,23521,15.63,73700.5,-3.79,-16.17,-17.73,0,*59
1504570050.8,23522,15.63,73706.8,-3.79,-15.67,-17.59,0,*56
1504570052.09,23523,15.63,73702.8,-3.77,-15.85,-17.07,0,*5E
1504570053.33,23524,15.63,73702.0,-3.79,-15.25,-17.03,0,*59
1504570054.59,23525,15.63,73700.8,-3.77,-15.29,-17.07,0,*5E
1504570055.87,23526,15.63,73702.5,-3.77,-15.57,-17.03,0,*50
1504570057.13,23527,15.63,73700.8,-3.77,-15.39,-16.83,0,*50
1504570058.36,23528,15.63,73700.3,-3.77,-15.11,-16.83,0,*55
1504570059.6,23529,15.63,73698.0,-3.77,-14.97,-16.45,0,*51
1504570060.86,23530,15.63,73702.8,-3.77,-14.55,-16.45,0,*57
1504570062.14,23531,15.63,73704.3,-3.77,-14.83,-15.85,0,*52
1504570063.41,23532,15.63,73704.3,-3.77,-14.23,-16.27,0,*50
1504570064.64,23533,15.63,73704.8,-3.79,-14.65,-16.17,0,*5E
1504570065.84,23534,15.63,73702.3,-3.79,-14.69,-15.67,0,*51
1504570067.09,23535,15.63,73708.8,-3.77,-14.79,-16.83,0,*56
1504570068.37,23536,15.63,73710.0,-3.77,-14.97,-17.07,0,*58
1504570069.61,23537,15.63,73710.0,-3.75,-15.63,-17.45,0,*57
1504570070.84,23538,15.63,73704.8,-3.75,-15.39,-16.79,0,*59
1504570072.04,23539,15.63,73708.0,-3.75,-15.07,-16.93,0,*51
1504570073.25,23540,15.63,73708.0,-3.75,-15.11,-16.83,0,*59
1504570074.48,23541,15.63,73708.3,-3.75,-15.53,-17.25,0,*53
1504570075.72,23542,15.63,73700.3,-3.75,-15.75,-17.41,0,*56
1504570076.92,23543,15.63,73706.0,-3.75,-15.49,-16.97,0,*52
1504570078.18,23544,15.63,73704.0,-3.75,-15.39,-16.69,0,*53
1504570079.47,23545,15.63,73700.3,-3.73,-15.35,-17.03,0,*55
1504570080.72,23546,15.63,73702.5,-3.75,-14.79,-16.65,0,*58
1504570081.98,23547,15.63,73702.0,-3.73,-14.89,-16.65,0,*50
1504570083.19,23548,15.63,73700.0,-3.75,-15.53,-16.97,0,*52
1504570084.45,23549,15.63,73700.8,-3.73,-15.11,-17.11,0,*5C
1504570085.71,23550,15.63,73700.3,-3.73,-15.53,-17.41,0,*57
1504570086.98,23551,15.63,73702.0,-3.73,-15.63,-17.11,0,*50
1504570088.23,23552,15.63,73706.5,-3.73,-15.21,-16.41,0,*51
1504570089.53,23553,15.63,73706.5,-3.73,-14.47,-15.35,0,*51
1504570090.79,23554,15.63,73704.0,-3.73,-14.79,-16.97,0,*50
1504570092.07,23555,15.63,73706.5,-3.73,-14.75,-16.51,0,*57
1504570093.31,23556,15.63,73704.8,-3.73,-14.89,-16.37,0,*57
1504570094.56,23557,15.63,73700.8,-3.71,-15.21,-16.79,0,*5D
1504570095.79,23558,15.63,73700.3,-3.71,-15.07,-16.79,0,*56
1504570097.04,23559,15.63,73706.0,-3.71,-15.35,-16.89,0,*59
1504570098.3,23560,15.63,73706.3,-3.73,-15.35,-16.83,0,*5B
1504570099.55,23561,15.63,73704.5,-3.71,-15.21,-16.79,0,*58
1504570100.79,23562,15.63,73706.5,-3.75,-15.35,-16.83,0,*5F